Aeroporto :
LOGIN :

Iscrizione | Disclaimer

   EN    FR    IT 

 










Sommario :    VFR   VFR Marginale   IFR   IFR Intensivo   IFR Molto Intensivo
Visibilità : 
Base nubi : 
>= 8 km
>= 3000ft
5 / 8 km
1000 / 3000 ft
1500m / 5 km
500 / 1000 ft
800 / 1500m
200 / 500 ft
< 800m
< 200 ft
Simboli :   Temporali  Nebbia  Neve Forte  Precipitazioni Forti  Vento > 20 kt
SIGMETs :   Varie  Temporali  Ghiacco  Turbolenza  Onda orograficha  Ceneri Vulcaniche







- Altitudine del aeroporto : 1043 ft
- Codice IATA : SLD


LZSL - Sliac

ULTIMO METAR :
  • 190300Z 00000KT CAVOK 16/15 Q1016

METARs OBSOLETI :
  • 190230Z 00000KT CAVOK 17/16 Q1016
  • 190200Z VRB01KT CAVOK 17/15 Q1016
  • 190130Z 00000KT CAVOK 17/16 Q1016
  • 190100Z VRB01KT 9999 FEW044 17/16 Q1016
  • 190030Z 09003KT 9999 FEW043 17/16 Q1016

TAF TAF LZSL
Valido dal 19 a 03 ore il 19 a 12 ore UTC


190200Z 1903/1912 01004KT 9999 SCT045
TEMPO 1903/1910 -SHRA FEW040TCU BKN070
PROB30
TEMPO 1903/1907 04010KT 4000 TSRA SCT040CB BKN060
Nessun NOTAM noto per questo aeroporto.



MetMap, La meteo Aeronautica in un colpo d'occhio ! - Copyright ORBIFLY Dicembre 2007 - Disclaimer

ORBIFLY MET'MAP TEAM :

Programmazione e sviluppo : Alexandra Zaïnal
Concezione e sviluppo : Baudouin d'Aumeries
Co-Programmazione e sviluppo : Marc-Olivier Méhu
Supporto tecnico e logistico : Manuel Goepfert
Aiuto per la traduzione : Arnaldo La Scala

Contatto : metmap@orbifly.com




FONTI E CREDITI :

   NOAA